#timestamp,LO_Frequency,Hit,StdDev 
1516676415.1,286047001.0,N
1516676416.0,286047001.0,N
1516676435.8,286047000.0,N
1516676455.6,286046998.4,N
1516676475.5,286046996.7,Y
1516676495.3,286046998.9,P
1516676515.2,286047001.1,N
1516676535.9,286046999.8,N
1516676555.7,286047000.9,N
1516676575.6,286047000.9,N
1516676595.4,286047000.1,N
1516676615.2,286047000.9,N
1516676635.1,286046998.2,N
1516676636.0,286046998.2,N
1516676655.8,286046998.3,N
1516676675.7,286047001.1,N
1516676695.5,286047001.0,N
1516676715.3,286047000.5,N
1516676735.2,286046998.1,N
1516676755.0,286047000.5,N
1516676755.9,286047000.5,N
1516676775.8,286046998.1,N
1516676795.6,286046998.9,N
1516676815.4,286046996.5,Y
1516676835.3,286046998.9,P
1516676855.1,286046999.3,N
1516676875.8,286046996.5,P
1516676895.7,286046998.1,N
1516676915.5,286047000.3,N
1516676935.4,286046998.5,N
1516676955.2,286047002.7,N
1516676975.0,286047001.2,N
1516676975.9,286047001.2,N
1516676995.8,286047001.2,N
1516677015.6,286047000.4,N
1516677035.4,286047000.4,N
1516677055.3,286047001.0,N
1516677075.1,286046998.5,N
1516677095.9,286047000.0,N
1516677115.7,286047000.7,N
1516677135.5,286047001.0,N
1516677155.4,286047000.4,N
1516677175.4,286047002.7,N
1516677195.3,286047001.5,N
1516677215.1,286047002.5,N
1516677235.9,286046998.4,N
1516677255.7,286046998.3,N
1516677275.5,286047000.3,N
1516677295.4,286047000.1,N
1516677315.2,286047000.3,N
1516677335.0,286047001.7,N
1516677335.9,286047001.7,N
1516677355.8,286047002.4,N
1516677375.6,286047002.1,N
1516677395.4,286047000.2,N
1516677415.2,286047001.5,N
1516677435.1,286047002.4,N
1516677436.0,286047002.4,N
1516677455.8,286047000.9,N
1516677475.7,286047000.2,N
1516677495.5,286047002.3,N
1516677515.3,286047000.5,N
1516677535.2,286046999.9,N
1516677555.0,286046999.7,N
1516677555.9,286046999.7,N
1516677575.8,286047000.5,N
1516677595.6,286046998.7,N
1516677615.4,286047000.8,N
1516677635.3,286047001.2,N
1516677655.1,286047000.6,N
1516677675.9,286046998.4,N
1516677695.7,286046998.6,N
1516677715.5,286046999.0,N
1516677735.4,286046999.6,N
1516677755.2,286046996.8,N
1516677775.0,286046996.5,N
1516677775.9,286046996.5,N
1516677795.8,286046996.6,N
1516677815.6,286046996.6,N
1516677835.5,286046999.1,N
1516677855.3,286046999.0,N
1516677875.1,286046996.5,N
1516677895.9,286046996.6,N
1516677915.7,286046996.7,N
1516677935.5,286046998.2,N
1516677955.4,286047000.8,N
1516677975.2,286047002.8,N
1516677995.1,286047000.4,N
1516677996.0,286047000.4,N
1516678015.8,286047000.6,N
1516678035.6,286047000.0,N
1516678055.5,286046996.5,N
1516678105.3,286046999.0,E
1516678115.3,286046998.2,N
1516678135.1,286047000.0,P
1516678136.0,286047000.0,N
1516678155.8,286047000.9,N
1516678175.7,286047001.2,N
1516678195.5,286046998.5,N
1516678215.3,286046998.7,N
1516678235.1,286046998.1,N
1516678236.0,286046998.1,N
1516678255.8,286046999.1,N
1516678275.6,286046997.1,N
1516678295.5,286046997.6,N
1516678315.3,286046997.9,N
1516678335.1,286046996.6,N
1516678355.9,286046997.3,N
1516678375.7,286046997.0,N
1516678395.6,286046999.4,N
1516678415.4,286046997.9,N
1516678435.2,286046995.2,Y
1516678455.1,286046999.1,P
1516678456.0,286046999.1,P
1516678475.8,286046995.3,P
1516678495.7,286046995.3,N
1516678515.5,286046997.9,N
1516678535.3,286046997.4,N
1516678555.2,286046999.2,N
1516678575.0,286046996.7,N
1516678575.9,286046996.7,N
1516678595.8,286046995.3,Y
1516678615.6,286046997.0,P
1516678635.4,286046999.1,P
1516678655.3,286046996.9,P
1516678675.1,286046997.5,N
1516678695.9,286046996.9,Y
1516678715.7,286047000.5,P
1516678735.5,286047002.7,N
1516678755.4,286047002.5,N
1516678775.2,286047000.3,N
1516678795.0,286047000.0,N
1516678795.9,286047000.0,N
1516678815.8,286047002.7,N
1516678835.6,286047002.6,N
1516678855.5,286047003.9,N
1516678875.3,286047003.8,N
1516678895.1,286047001.7,N
1516678915.9,286047001.6,N
1516678935.7,286047004.0,N
1516678955.5,286047003.9,N
1516678975.4,286047001.5,N
1516678995.2,286047002.4,N
1516679015.1,286047002.1,N
1516679016.0,286047002.1,N
1516679035.8,286047000.4,N
1516679055.6,286047000.0,N
1516679075.5,286046998.8,N
1516679095.3,286046998.2,N
1516679115.2,286046998.6,N
1516679135.9,286046996.9,N
1516679155.7,286047000.4,N
1516679175.6,286046998.6,N
1516679195.4,286046998.8,N
1516679215.2,286046998.9,N
1516679235.1,286046999.0,N
1516679236.0,286046999.0,N
1516679255.8,286046999.0,N
1516679275.7,286046998.6,N
1516679295.5,286046998.5,N
1516679315.3,286046998.7,N
1516679335.2,286047000.0,N
1516679355.0,286046999.4,N
1516679355.9,286046999.4,N
1516679375.8,286046999.3,N
1516679395.6,286046998.9,N
1516679415.4,286046999.0,N
1516679435.3,286046996.9,N
1516679455.1,286046999.5,N
1516679475.1,286046996.5,N
1516679476.0,286046996.5,N
1516679495.8,286046998.4,N
1516679515.7,286046998.7,N
1516679535.5,286046998.9,N
1516679555.3,286046996.6,Y
1516679575.2,286046998.6,P
1516679595.0,286046998.2,P
1516679595.9,286046998.2,P
1516679615.8,286046999.1,Y
1516679635.6,286046998.4,P
1516679655.4,286046998.2,P
1516679675.3,286047000.4,P
1516679695.1,286047000.0,N
1516679715.8,286046999.9,N
1516679735.7,286047000.9,N
1516679755.5,286046999.4,N
1516679775.4,286047001.1,N
1516679795.2,286047001.0,N
1516679815.0,286046999.9,N
1516679815.9,286046999.9,N
1516679835.8,286047000.4,N
1516679855.6,286047000.1,N
1516679875.4,286047000.5,N
1516679895.3,286047002.1,N
1516679915.1,286047002.4,N
1516679935.9,286046999.7,N
1516679955.7,286047002.2,N
1516679975.5,286047002.8,N
1516679995.4,286047000.7,N
